Location: Castillon
(43.0896°N, 0.2156°E)
Time: 02:32:51
(UTC+00:00)

SPOT 5 - Pass Details

Date: 16 June 2021
Orbit: 622 x 815 km, 98.2° (Epoch: 25 July)

Event Time Altitude Azimuth Distance (km) Brightness Sun altitude
Exits shadow 20:53:08 14° 130° (SE) 2,059 4.6 -10.9°
Maximum altitude 20:57:01 36° 69° (ENE) 1,197 3.8 -11.3°
Drops below altitude 10° 21:01:33 10° 4° (N) 2,257 6.1 -11.9°
Sets 21:03:55 0° 356° (N) 3,152 7.1 -12.2°
